Wetbulb
67.11 68.09 68.26 68.16 67.82 68.04 68.52 68.82 68.65 70.45 68.22 65.97 64.91 65.32 64.84 66.52 67.44 67.98 68.81 69.37 69.82 70.25 71.17 71.04 71.35 71.94 71.64 72.19 72.15 70.53 66.81 65.62 68.65 67.04 67.25 68.05 69.41 69.42 69.41 69.63 68.98 68.37 68.00
66.76 67.44 68.14 68.63 68.08 67.80 67.94 68.48 68.65 69.97 68.57 67.59 68.11 67.51 67.36 67.50 68.22 68.85 69.35 69.22 69.67 70.43 70.77 71.50 71.63 72.58 71.17 72.25 70.71 67.02 65.27 65.23 65.61 65.94 66.53 64.01 67.26 67.36 68.65 68.71 67.45 67.36 67.62
66.04 67.12 67.58 68.30 68.52 67.53 67.58 68.09 68.99 69.60 69.32 69.73 68.25 68.49 68.03 68.16 67.07 67.69 68.22 69.08 69.15 69.68 70.79 71.86 72.07 72.46 71.91 71.22 69.98 65.75 65.66 63.93 64.54 64.77 62.99 59.70 59.43 62.39 67.17 68.02 68.14 67.26 66.27
64.30 65.36 66.55 67.66 68.58 68.55 68.59 68.92 69.27 69.34 69.23 69.93 68.58 68.56 66.66 65.83 67.20 68.70 69.05 69.42 70.41 70.09 70.62 71.60 72.20 73.10 71.53 71.69 69.79 68.05 65.73 65.13 63.52 64.18 64.19 63.99 63.48 60.98 59.77 65.52 67.86 68.82 67.35
65.39 64.97 65.79 66.51 67.06 67.32 68.33 68.45 69.41 69.02 68.65 69.16 68.97 67.21 68.24 67.82 68.21 68.68 69.36 70.15 70.60 71.20 70.82 71.11 71.67 71.87 71.02 71.32 68.66 68.39 66.79 67.33 66.07 64.66 63.45 62.90 62.60 62.95 61.34 58.85 62.44 65.24 66.94
62.85 65.12 66.85 68.36 68.73 69.24 67.60 66.29 67.21 68.06 68.00 67.83 68.01 68.52 68.51 68.03 67.01 68.04 67.93 68.01 68.85 69.73 70.09 70.20 70.31 70.07 70.96 69.76 68.71 68.48 66.68 67.80 66.22 65.52 63.94 63.18 62.01 61.44 60.85 59.58 60.39 60.47 62.52
64.07 65.30 65.85 67.01 67.89 68.42 69.17 69.54 66.23 66.32 67.36 67.46 67.49 67.73 68.11 68.64 68.65 69.17 69.04 69.31 69.36 69.50 70.27 70.65 70.61 70.37 68.84 67.98 68.48 66.67 66.27 67.24 66.88 65.48 65.14 64.28 63.44 62.89 62.11 60.71 59.15 58.52 59.23
65.05 63.29 64.05 65.48 66.42 66.76 67.62 68.95 70.07 67.42 65.91 67.15 67.72 68.52 69.25 68.43 68.69 69.32 69.66 69.71 69.83 69.32 70.19 70.42 70.46 69.48 68.68 67.24 68.05 66.65 66.69 68.12 66.44 64.97 64.11 60.29 58.32 60.15 60.42 59.53 57.96 54.46 54.70
62.35 62.86 63.67 64.04 65.15 65.32 66.01 65.94 68.19 67.00 67.61 68.05 68.73 69.26 69.10 68.58 67.42 67.72 67.24 66.45 67.38 67.40 67.76 68.75 68.45 68.12 66.86 66.32 65.77 66.38 66.45 65.00 64.09 60.07 58.81 57.26 58.00 57.50 57.34 56.81 56.37 54.82 51.70
62.35 63.25 63.36 63.45 65.40 65.48 65.46 65.66 66.06 65.88 66.26 66.10 67.20 67.52 67.34 66.98 66.79 65.19 66.73 66.38 67.67 68.21 68.33 68.19 67.89 66.70 66.35 66.19 64.01 61.90 62.84 61.53 59.89 59.61 58.44 58.61 58.76 57.83 57.44 57.06 56.85 56.38 56.14
62.10 62.41 63.62 62.63 66.11 67.00 66.09 65.73 64.95 64.51 64.70 65.11 65.22 66.17 65.95 65.77 65.59 65.26 66.32 67.06 67.53 67.33 65.14 63.74 63.11 63.02 63.27 62.31 60.07 59.75 60.06 59.36 58.14 57.60 57.22 56.82 56.72 55.42 55.55 55.87 56.13 57.23 56.94
63.21 62.72 63.11 63.72 64.74 65.54 64.89 65.12 65.88 64.47 64.31 64.32 63.84 64.07 65.43 65.08 65.32 65.37 65.25 64.42 63.76 62.88 60.43 59.74 59.05 58.70 58.18 59.12 57.15 56.40 56.39 55.81 54.97 55.64 55.45 54.33 54.81 54.99 56.55 56.42 57.40 57.66 58.21
62.86 63.62 64.16 63.34 63.20 64.08 63.47 63.66 64.52 64.48 64.46 64.33 64.42 63.71 63.88 63.63 63.18 63.39 63.14 61.93 60.15 59.37 58.66 58.14 58.47 58.15 58.01 57.35 56.89 57.24 57.18 57.44 57.81 58.59 58.55 58.21 58.57 58.02 57.77 57.56 57.48 57.63 58.10
61.66 63.34 63.29 62.75 61.28 62.32 62.22 63.02 63.74 64.95 64.79 65.31 64.97 63.86 62.53 62.18 61.90 60.91 59.06 57.33 57.23 55.86 56.25 55.04 55.33 54.54 54.69 55.13 55.44 56.66 57.88 57.31 57.19 57.62 57.62 58.20 58.20 58.13 58.26 57.14 57.01 56.90 56.41
59.50 61.45 62.05 61.56 61.14 61.35 62.24 62.07 62.40 62.68 64.76 63.31 63.63 62.88 61.71 62.33 59.25 58.30 58.54 58.72 57.56 56.38 58.13 57.20 55.50 55.25 54.50 54.79 56.93 56.74 56.61 56.40 56.09 56.18 56.11 56.49 55.12 54.12 54.64 56.13 56.24 56.01 54.56
58.37 60.17 60.90 59.80 59.55 60.97 61.01 61.05 60.97 62.11 62.36 60.79 59.96 60.58 61.45 61.17 58.52 57.12 56.25 57.06 55.57 57.37 56.45 54.62 53.70 52.47 50.83 47.55 49.56 53.87 55.04 55.03 54.52 54.57 55.32 54.90 52.37 52.01 49.60 49.97 49.45 50.25 50.82
58.41 59.61 59.76 59.48 59.10 60.24 60.59 60.82 61.51 61.74 59.67 59.27 60.35 59.41 60.62 58.47 57.43 56.40 53.73 52.66 54.58 55.61 53.55 52.75 52.39 51.50 50.95 46.14 47.10 50.05 52.91 52.58 52.59 52.80 52.93 52.67 53.03 53.19 52.84 51.01 50.97 50.03 49.26
58.07 60.07 59.01 58.64 58.99 60.25 58.27 58.96 59.54 60.82 58.88 58.73 57.85 58.90 59.01 58.42 57.30 56.21 55.66 55.90 55.40 53.33 52.41 52.22 52.39 51.57 49.60 45.43 45.91 48.51 52.49 51.74 51.99 52.29 52.52 52.50 52.13 49.69 51.18 51.86 51.35 51.52 51.72
59.49 60.33 59.72 58.20 57.91 57.76 57.48 57.29 57.97 58.26 57.46 56.50 57.13 57.90 58.89 57.37 56.70 56.76 55.90 54.42 52.84 52.23 52.09 52.20 52.04 51.42 50.73 44.49 45.18 49.62 51.61 50.76 50.79 51.14 50.90 51.27 51.00 44.32 45.48 50.64 49.74 49.74 49.94
59.79 60.14 58.57 58.63 57.31 58.16 59.49 57.17 56.88 56.86 56.44 56.41 56.71 57.26 57.54 58.02 57.48 57.01 56.28 53.19 52.21 51.28 51.14 50.81 51.76 48.90 51.44 42.93 43.54 48.70 50.72 50.14 49.51 50.87 51.33 45.10 47.16 43.23 43.64 50.55 49.21 47.49 47.69
59.58 59.27 58.29 56.95 57.31 58.14 58.37 56.67 56.39 55.67 55.72 55.68 55.82 56.11 56.93 57.69 58.07 57.23 55.54 52.43 51.50 51.78 50.47 50.12 51.20 51.16 50.11 49.21 42.81 43.14 51.57 49.93 49.29 49.00 49.05 49.77 42.91 42.43 42.71 43.05 49.41 46.05 46.71
57.48 57.28 56.69 56.27 57.49 57.92 57.54 55.97 55.33 56.63 56.99 56.43 55.29 56.30 57.13 56.22 56.15 55.41 53.20 51.94 51.89 50.54 49.96 49.75 49.38 50.27 51.41 42.93 43.51 41.65 42.35 46.09 50.98 49.77 50.31 49.09 41.51 41.16 41.94 45.00 41.85 42.01 45.15
57.53 57.35 57.56 57.66 56.29 55.16 55.42 54.96 56.31 56.91 56.29 55.24 54.06 53.41 55.03 55.17 55.92 54.28 52.12 50.42 51.84 50.44 49.29 48.67 48.98 49.91 51.01 51.62 43.15 42.08 41.80 43.09 49.02 51.94 46.78 42.40 41.54 42.31 45.27 42.89 42.66 43.88 49.21
56.83 57.78 57.19 56.30 56.41 56.35 56.69 57.39 57.07 56.67 55.42 54.83 54.09 54.45 54.69 53.56 54.55 53.88 53.28 51.43 51.84 51.85 49.16 49.04 49.36 50.17 50.74 51.11 52.02 52.27 53.10 43.92 46.71 46.36 50.78 46.58 44.03 41.90 44.01 47.77 47.92 48.98 49.04
58.06 58.67 57.60 57.07 57.39 58.35 58.16 57.89 57.92 57.63 55.94 53.77 53.86 52.20 51.59 52.19 52.42 52.30 53.05 53.15 54.34 51.10 52.08 51.84 51.27 50.28 51.04 49.77 43.59 43.97 49.84 50.88 47.02 47.63 50.08 50.48 48.95 48.18 47.77 47.90 47.89 48.62 46.68
57.42 57.07 57.28 57.25 55.56 54.90 57.10 57.69 56.61 56.63 57.61 56.96 53.13 50.25 49.88 49.25 52.41 52.70 51.20 40.62 40.95 40.95 40.90 41.87 46.07 50.46 42.70 40.04 39.51 39.70 39.00 39.16 39.22 46.96 47.36 47.94 47.57 46.71 46.33 46.03 46.18 47.88 45.54
MSLP
1008.29 1008.94 1009.62 1010.30 1010.86 1011.41 1011.88 1012.34 1012.74 1012.98 1013.55 1014.10 1014.53 1014.75 1014.48 1014.67 1014.87 1014.90 1014.89 1014.92 1015.14 1015.46 1015.78 1015.65 1015.58 1015.81 1015.91 1015.85 1016.44 1017.19 1017.81 1017.98 1017.99 1017.67 1016.59 1016.22 1016.17 1016.15 1016.07 1015.95 1016.15 1016.40 1016.81
1008.22 1008.85 1009.29 1009.58 1009.89 1010.17 1010.61 1011.24 1011.94 1012.53 1013.08 1013.52 1013.64 1013.72 1013.94 1013.97 1014.09 1014.06 1014.05 1014.26 1014.34 1014.50 1014.68 1014.67 1014.64 1015.08 1015.26 1015.78 1016.43 1016.91 1017.20 1017.78 1018.13 1018.09 1017.33 1016.40 1015.88 1015.51 1015.77 1015.90 1016.13 1016.56 1016.57
1007.62 1008.04 1008.37 1008.72 1009.15 1009.53 1009.84 1010.34 1010.63 1011.41 1012.12 1012.49 1012.95 1013.20 1013.47 1013.68 1013.54 1013.02 1013.01 1013.23 1013.57 1013.70 1013.88 1013.84 1014.04 1014.27 1014.65 1015.01 1015.62 1016.16 1016.64 1017.22 1017.57 1017.70 1017.72 1017.06 1016.16 1016.04 1015.81 1015.82 1015.93 1016.28 1016.44
1007.73 1007.55 1007.71 1007.81 1007.85 1008.09 1008.48 1008.95 1009.39 1010.24 1010.36 1010.89 1011.42 1011.93 1011.89 1011.95 1011.73 1011.97 1012.18 1012.33 1012.61 1012.75 1012.91 1013.33 1013.48 1013.95 1014.21 1014.18 1014.76 1015.49 1015.82 1016.25 1016.86 1016.99 1017.00 1016.75 1016.78 1016.55 1016.26 1015.72 1015.80 1015.91 1016.17
1008.31 1007.87 1007.87 1007.96 1007.92 1007.94 1007.94 1008.29 1008.53 1009.19 1009.52 1010.08 1010.55 1010.95 1011.33 1011.37 1011.70 1011.94 1011.99 1012.11 1012.41 1012.43 1012.50 1012.59 1012.88 1013.59 1014.52 1015.03 1014.59 1014.79 1015.26 1015.43 1016.11 1016.03 1016.04 1016.30 1016.21 1016.34 1016.25 1015.96 1015.78 1015.96 1016.40
1009.81 1009.45 1009.27 1009.01 1008.67 1008.42 1008.14 1008.08 1008.47 1008.93 1009.38 1009.69 1010.08 1010.45 1010.78 1011.25 1011.52 1011.65 1011.74 1011.81 1011.96 1011.92 1011.84 1011.82 1012.07 1012.36 1012.75 1013.75 1014.63 1014.67 1014.64 1014.69 1014.52 1015.06 1015.19 1015.08 1015.21 1015.32 1015.72 1015.77 1015.79 1016.08 1016.59
1010.86 1010.70 1010.35 1010.00 1009.67 1009.21 1008.96 1008.57 1008.48 1008.54 1008.87 1009.33 1009.71 1010.10 1010.47 1010.93 1011.17 1011.50 1011.69 1011.95 1012.07 1012.19 1012.09 1012.21 1012.08 1012.26 1012.71 1012.95 1013.77 1014.22 1013.93 1012.76 1013.67 1014.48 1014.01 1014.10 1014.16 1014.65 1014.92 1015.15 1015.29 1016.10 1016.74
1011.83 1011.76 1011.48 1011.23 1010.58 1010.07 1009.80 1009.37 1008.90 1008.98 1009.34 1009.55 1009.84 1010.37 1010.83 1011.08 1011.32 1011.74 1011.86 1011.97 1012.20 1012.71 1012.78 1012.90 1012.74 1012.54 1013.04 1013.35 1013.48 1013.70 1013.76 1012.87 1013.33 1013.63 1013.67 1014.58 1015.14 1014.93 1015.04 1014.73 1015.65 1016.27 1017.15
1012.69 1012.61 1012.46 1012.25 1011.82 1011.46 1011.16 1010.71 1010.11 1010.06 1010.04 1010.15 1010.38 1010.78 1011.31 1011.58 1011.87 1012.27 1012.52 1012.82 1013.10 1013.13 1013.06 1012.94 1012.92 1012.95 1012.99 1013.02 1013.18 1013.51 1013.44 1013.19 1013.91 1014.47 1014.93 1015.27 1015.70 1015.69 1015.92 1016.23 1016.44 1017.25 1017.46
1013.39 1013.33 1013.23 1012.90 1012.41 1012.29 1012.07 1011.81 1011.81 1011.68 1011.45 1011.50 1011.59 1011.88 1012.23 1012.50 1012.81 1013.16 1013.07 1013.25 1013.30 1013.28 1013.06 1013.03 1013.32 1013.36 1013.42 1013.37 1013.52 1013.71 1013.71 1014.18 1014.88 1015.34 1015.76 1015.65 1016.13 1016.33 1016.49 1016.82 1016.81 1017.14 1017.01
1013.96 1014.00 1013.87 1013.61 1012.92 1012.84 1012.96 1012.85 1012.58 1012.39 1012.35 1012.37 1012.53 1012.70 1013.00 1013.16 1013.27 1013.47 1013.47 1013.48 1013.54 1013.57 1013.72 1013.97 1014.06 1013.99 1014.16 1014.42 1014.55 1014.54 1014.82 1015.35 1015.84 1016.09 1016.37 1016.37 1016.60 1016.86 1016.68 1016.99 1017.06 1017.00 1017.21
1014.34 1014.40 1014.21 1013.98 1013.69 1013.12 1013.58 1013.27 1013.11 1012.96 1012.99 1013.14 1013.19 1013.28 1013.42 1013.60 1013.68 1013.85 1013.90 1014.02 1014.16 1014.45 1014.65 1014.81 1014.72 1014.89 1015.03 1015.41 1015.20 1015.78 1015.75 1016.32 1016.21 1016.61 1016.69 1017.06 1017.23 1017.24 1017.21 1017.10 1017.25 1017.46 1017.36
1014.59 1014.50 1014.37 1014.35 1014.08 1013.87 1013.96 1013.91 1013.95 1013.87 1013.80 1013.86 1013.79 1013.82 1014.01 1014.22 1014.43 1014.56 1014.65 1014.89 1015.01 1015.05 1015.27 1015.20 1015.59 1015.95 1016.14 1016.37 1016.07 1016.77 1016.83 1016.96 1016.83 1016.87 1017.03 1017.24 1017.13 1017.15 1017.22 1017.23 1017.29 1017.36 1017.34
1015.03 1014.94 1014.86 1014.90 1014.89 1014.82 1014.85 1014.59 1014.61 1014.45 1014.56 1014.28 1014.40 1014.53 1014.80 1015.04 1015.26 1015.53 1015.71 1015.71 1015.73 1015.86 1016.18 1016.24 1016.62 1016.85 1016.94 1016.90 1017.01 1017.33 1017.34 1017.39 1017.63 1017.60 1017.65 1017.45 1017.48 1017.48 1017.49 1017.57 1017.70 1017.64 1017.26
1015.61 1015.44 1015.43 1015.51 1015.57 1015.45 1015.53 1015.39 1015.18 1015.08 1014.82 1015.12 1015.34 1015.34 1015.61 1015.83 1016.16 1016.38 1016.58 1016.73 1016.72 1016.95 1016.97 1016.87 1017.18 1017.42 1017.60 1017.71 1017.66 1017.86 1017.91 1017.80 1017.91 1017.94 1017.95 1018.32 1018.43 1018.53 1018.43 1017.89 1018.02 1017.91 1017.49
1015.95 1015.89 1015.89 1016.03 1016.11 1015.99 1015.99 1016.01 1015.85 1015.76 1015.82 1015.83 1016.15 1016.15 1016.09 1016.46 1016.88 1017.07 1017.26 1017.35 1017.54 1017.62 1017.45 1017.78 1018.09 1018.27 1018.62 1018.92 1018.65 1018.49 1018.49 1018.56 1018.54 1018.61 1018.72 1018.82 1019.06 1019.02 1019.06 1019.12 1019.06 1019.03 1018.61
1016.06 1016.22 1016.35 1016.46 1016.53 1016.44 1016.56 1016.53 1016.40 1016.43 1016.53 1016.54 1016.82 1016.81 1016.78 1017.07 1017.51 1017.88 1018.01 1018.16 1018.24 1018.33 1018.72 1019.02 1019.14 1019.36 1019.77 1019.75 1019.72 1019.42 1019.30 1019.34 1019.39 1019.45 1019.35 1019.16 1019.46 1019.51 1019.36 1019.33 1019.19 1019.14 1019.19
1016.68 1016.54 1016.77 1016.96 1017.07 1017.00 1016.91 1017.04 1017.06 1017.02 1017.18 1017.40 1017.48 1017.55 1017.50 1017.73 1018.24 1018.51 1018.70 1018.93 1019.14 1019.40 1019.57 1019.84 1020.15 1020.27 1020.64 1020.72 1020.59 1020.21 1020.03 1019.94 1020.07 1020.19 1020.27 1020.23 1020.26 1020.41 1020.03 1019.61 1019.41 1019.24 1019.04
1017.02 1016.96 1017.13 1017.36 1017.58 1017.58 1017.61 1017.63 1017.75 1017.60 1017.82 1018.02 1018.05 1018.09 1018.15 1018.34 1018.73 1019.03 1019.52 1019.94 1019.91 1020.16 1020.25 1020.41 1020.73 1020.94 1021.42 1021.50 1021.30 1020.86 1020.60 1020.53 1020.70 1020.90 1021.21 1021.06 1021.10 1021.14 1020.71 1020.11 1019.79 1019.35 1018.91
1016.91 1017.08 1017.51 1017.79 1017.85 1018.01 1018.05 1018.04 1018.52 1018.45 1018.60 1018.76 1018.47 1018.76 1018.90 1018.83 1019.14 1019.52 1019.99 1020.45 1020.78 1021.07 1021.07 1021.18 1021.35 1021.65 1021.99 1022.24 1021.91 1021.47 1020.94 1020.96 1020.86 1021.20 1021.40 1021.76 1021.73 1021.48 1021.25 1020.67 1020.17 1019.62 1019.31
1017.51 1017.71 1017.99 1018.36 1018.50 1018.59 1018.68 1018.59 1018.84 1019.08 1019.61 1019.43 1019.38 1019.44 1019.52 1019.60 1019.91 1020.23 1020.66 1021.04 1021.23 1021.43 1021.49 1021.70 1021.76 1022.01 1022.25 1022.52 1022.39 1022.29 1021.97 1021.52 1021.28 1021.30 1021.35 1021.75 1022.06 1021.91 1021.68 1021.39 1020.69 1020.48 1020.03
1018.02 1018.20 1018.41 1018.74 1018.93 1018.92 1019.04 1019.27 1019.33 1019.65 1019.84 1020.10 1020.05 1020.02 1020.09 1020.17 1020.52 1020.81 1021.22 1021.45 1021.68 1021.75 1021.85 1021.73 1021.92 1022.17 1022.29 1022.72 1022.54 1022.89 1022.70 1022.48 1021.92 1021.76 1021.81 1022.11 1022.37 1022.01 1021.72 1021.41 1021.18 1020.58 1019.71
1018.41 1018.76 1018.84 1019.15 1019.54 1019.42 1019.31 1019.63 1020.15 1020.26 1020.47 1020.48 1020.56 1020.73 1020.73 1020.86 1021.04 1021.15 1021.57 1021.89 1021.97 1021.92 1021.95 1021.83 1021.91 1022.15 1022.31 1022.34 1022.59 1022.71 1022.74 1022.60 1022.47 1022.17 1022.38 1022.37 1022.24 1021.63 1021.27 1021.39 1021.00 1020.22 1019.57
1018.74 1018.99 1019.19 1019.60 1019.87 1020.03 1020.00 1020.16 1020.35 1020.46 1020.58 1020.82 1020.92 1020.97 1020.97 1021.32 1021.58 1021.63 1021.92 1022.15 1022.18 1022.19 1022.27 1022.22 1022.14 1022.24 1022.36 1022.39 1022.36 1022.35 1022.31 1022.63 1022.47 1022.26 1022.08 1022.10 1022.26 1021.78 1021.36 1020.86 1020.50 1020.14 1019.89
1018.88 1019.09 1019.36 1019.60 1019.80 1019.96 1020.07 1020.23 1020.27 1020.35 1020.59 1020.94 1021.29 1021.59 1021.59 1021.59 1021.88 1022.24 1022.54 1022.84 1022.87 1022.97 1022.76 1022.55 1022.48 1022.46 1022.51 1022.82 1023.41 1023.46 1022.87 1022.51 1022.56 1022.38 1022.13 1021.73 1021.61 1021.29 1021.00 1020.77 1020.49 1020.09 1020.11
1019.23 1019.44 1019.57 1019.68 1019.96 1020.05 1019.95 1020.09 1020.32 1020.27 1020.03 1020.54 1021.29 1021.64 1021.83 1021.77 1021.58 1022.04 1023.04 1023.66 1023.62 1023.44 1023.52 1023.30 1023.35 1023.08 1023.18 1023.34 1023.50 1023.44 1023.06 1022.88 1022.90 1022.67 1022.18 1021.83 1021.70 1021.48 1021.20 1020.84 1020.41 1020.06 1020.26
Wind_Speed
11 13 14 15 14 13 13 14 14 14 11 10 9 10 12 11 10 11 14 14 13 13 12 10 11 10 10 10 7 1 3 3 8 9 9 8 9 9 9 7 8 10 11
9 9 10 13 16 16 15 15 15 13 13 10 8 7 7 9 10 10 12 15 15 14 13 13 11 11 10 9 7 4 4 2 2 4 4 6 6 6 8 7 7 10 8
14 11 11 12 13 15 16 15 16 15 14 14 9 7 6 4 7 11 12 13 15 15 14 14 13 11 10 9 10 7 7 4 4 7 3 2 4 1 1 5 5 7 7
14 12 11 12 14 16 15 16 16 16 16 17 14 15 12 12 11 10 9 10 13 14 13 13 11 10 8 10 9 8 6 6 8 4 6 3 1 2 3 3 2 2 4
13 9 8 9 10 11 10 13 14 15 15 15 16 14 14 11 8 6 8 8 8 9 10 10 9 8 6 9 9 11 9 7 8 9 3 7 6 4 6 5 2 2 1
14 12 11 10 11 11 9 6 9 10 12 14 16 14 14 12 8 6 5 5 5 6 8 9 8 9 8 8 7 7 6 8 8 7 9 9 5 8 6 5 2 3 2
14 15 15 14 13 14 13 10 4 7 10 12 12 14 13 12 11 7 5 5 4 4 7 8 7 4 4 6 7 7 12 12 10 11 10 9 7 3 5 4 2 3 2
14 14 14 14 15 16 16 15 11 5 2 5 7 8 9 5 5 4 4 3 2 5 8 5 7 4 5 4 6 5 6 7 2 1 3 7 6 5 3 3 2 3 3
13 13 13 13 12 13 14 14 14 9 6 5 5 5 5 6 6 6 3 3 5 5 5 6 3 4 4 3 3 2 2 6 5 7 8 6 5 6 5 6 5 3 1
12 12 12 12 13 12 11 12 13 13 13 11 9 7 8 7 5 2 1 4 4 4 6 7 5 2 2 3 5 6 8 9 7 6 5 6 4 5 4 3 2 1 1
12 11 11 11 12 13 13 12 12 13 11 10 9 9 6 4 3 4 4 5 8 9 10 9 8 10 10 9 9 9 10 10 7 6 6 6 4 2 3 2 2 3 0
10 9 10 10 11 13 13 13 13 12 10 9 9 7 6 6 6 7 8 9 9 10 10 9 11 11 10 8 10 9 8 7 8 6 7 5 3 3 3 2 4 2 1
9 8 9 9 10 10 11 11 11 10 10 9 10 10 10 9 8 9 10 9 10 10 10 11 12 11 10 10 11 10 10 10 10 9 7 6 5 4 4 4 3 2 1
7 6 5 6 7 8 8 9 8 9 8 9 9 10 10 10 10 10 10 9 9 11 11 11 11 11 10 12 10 9 10 10 9 9 9 9 9 7 5 4 4 3 3
6 7 6 5 6 6 5 6 7 7 7 9 10 11 11 12 10 10 11 12 12 9 13 14 13 13 11 8 11 10 11 11 10 11 10 12 14 17 15 7 8 7 6
4 5 5 5 5 5 4 5 6 7 8 9 8 9 12 12 10 10 10 12 11 12 15 14 14 13 10 12 14 11 11 11 11 10 9 10 12 12 14 12 12 9 7
7 5 5 4 4 4 5 5 7 8 8 9 8 8 10 11 11 10 9 10 11 13 13 13 13 13 11 11 12 12 12 11 11 11 9 7 8 10 9 8 7 9 8
8 5 5 5 5 5 6 4 5 8 8 9 7 5 9 11 10 11 11 11 11 11 11 11 11 11 9 10 10 10 12 11 12 12 11 10 10 10 9 8 8 8 8
5 1 5 5 4 3 3 5 6 8 7 6 5 7 9 10 10 10 10 9 10 9 9 9 10 11 10 9 8 8 9 10 10 10 11 10 10 8 8 9 10 11 11
6 5 6 5 5 4 5 8 7 8 9 6 8 7 7 8 10 10 9 9 8 8 8 9 9 9 9 9 9 8 7 9 7 7 8 11 9 8 10 9 10 11 13
7 9 7 7 6 5 6 8 7 9 7 7 7 7 7 8 8 8 8 8 8 8 8 8 8 8 7 9 11 10 4 4 5 5 6 7 9 7 7 7 9 10 11
9 9 10 7 6 7 8 9 10 10 8 6 5 7 6 5 6 8 7 7 7 7 6 7 5 4 4 6 6 6 6 3 3 4 4 5 4 5 6 7 8 11 11
10 8 9 10 9 6 9 10 7 7 7 5 5 6 5 6 5 7 7 5 5 4 4 4 3 2 2 2 1 5 3 2 4 2 4 2 4 3 2 5 7 10 8
9 9 11 9 8 6 5 5 5 4 3 6 6 5 6 6 4 4 4 4 4 3 4 3 2 2 1 3 3 4 1 3 6 5 2 2 4 3 3 6 7 7 7
8 8 9 8 7 5 5 4 3 3 5 5 3 5 3 4 5 4 3 3 2 1 2 2 1 1 1 4 6 6 6 5 4 4 2 3 5 6 7 8 8 7 8
8 8 7 7 5 3 4 3 1 3 5 6 5 2 4 4 5 5 5 6 6 2 3 5 5 0 2 6 7 3 4 5 1 2 2 4 5 7 8 8 8 7 8
Wind_Direction
219 217 221 222 227 229 223 219 214 207 195 202 211 224 226 221 225 227 226 226 226 228 227 240 239 234 237 236 241 215 49 325 309 285 252 250 240 237 241 238 244 235 228
259 244 218 213 217 220 215 215 218 210 207 211 220 225 218 230 231 228 231 229 229 229 230 230 234 233 230 219 197 161 143 180 194 274 277 260 232 242 245 238 237 236 238
274 254 238 223 219 222 219 215 211 205 208 214 209 211 211 222 222 226 230 228 228 231 232 231 236 227 221 206 192 184 180 169 197 217 237 234 232 327 219 229 229 224 216
299 277 254 243 236 228 222 210 206 199 206 197 206 211 215 217 229 237 236 229 221 226 228 236 237 236 223 206 192 182 191 170 216 201 219 245 357 188 279 210 201 235 226
12 355 346 332 316 304 258 223 212 205 207 202 207 208 217 230 235 230 232 221 230 228 232 233 241 243 240 241 209 189 189 201 224 223 201 215 212 203 225 239 200 114 67
24 29 28 21 16 13 356 285 233 220 216 210 210 211 221 220 220 218 215 200 204 206 207 202 186 195 197 224 226 218 202 211 216 217 207 209 206 209 199 206 179 153 88
32 32 27 24 22 20 9 2 320 223 206 207 208 209 212 209 211 210 215 204 204 222 225 214 218 220 195 180 198 210 221 208 226 228 232 224 208 185 202 189 132 134 94
38 33 29 26 26 23 18 8 354 330 237 195 197 199 186 181 188 187 183 196 238 7 11 311 280 203 193 236 238 211 239 262 201 338 67 63 40 27 4 75 95 89 62
35 33 31 26 26 24 22 24 27 48 70 100 131 141 148 135 124 124 108 50 7 353 354 9 41 77 51 78 102 261 256 82 58 75 82 91 84 87 82 72 65 62 94
42 41 40 32 38 41 36 43 52 53 60 64 74 81 90 92 91 81 346 1 7 16 8 5 25 19 316 59 43 40 49 75 71 67 84 73 79 86 86 118 114 184 138
41 38 36 35 42 49 45 51 55 55 57 57 58 63 64 42 23 26 31 19 19 31 50 54 53 58 55 65 72 69 70 70 75 65 58 65 67 49 74 72 116 126 223
48 38 41 38 39 46 35 39 42 49 50 55 59 60 69 63 60 53 55 76 76 73 73 65 65 57 64 52 69 61 67 67 72 62 65 49 38 43 44 49 47 344 238
38 38 37 40 29 39 42 43 40 49 60 66 69 68 66 69 73 78 75 71 75 63 59 62 61 71 65 66 66 69 70 67 63 61 61 49 42 45 43 23 5 4 331
27 33 47 50 41 30 30 43 47 50 57 66 72 77 72 74 75 72 68 64 67 74 75 71 69 65 65 63 65 66 68 67 61 59 53 45 40 28 28 53 46 43 354
27 12 17 62 16 27 39 45 56 55 63 74 73 81 80 83 73 73 79 83 77 79 84 82 71 66 62 55 70 66 61 59 59 55 56 54 57 52 42 25 27 6 355
37 23 40 77 45 23 46 52 56 71 75 83 83 93 97 94 88 88 85 81 75 78 72 69 72 68 62 44 46 61 66 58 52 50 53 60 47 57 54 54 54 41 13
23 32 64 59 64 73 63 55 79 99 94 90 88 86 94 90 86 83 78 72 74 78 75 73 71 70 67 48 53 57 65 60 51 43 33 33 42 24 30 53 48 61 56
357 54 86 72 53 82 69 64 85 96 90 78 60 48 85 94 95 85 82 83 85 84 86 81 74 76 68 57 63 70 67 61 54 48 45 47 42 29 10 20 22 17 15
345 21 106 110 97 61 60 72 89 99 90 80 69 71 92 97 102 98 93 88 95 92 89 83 81 79 68 42 35 64 67 67 62 60 48 44 48 20 358 30 17 5 1
338 124 111 96 66 66 108 92 75 64 61 52 82 86 87 98 99 107 107 106 101 96 93 89 87 74 78 43 36 15 56 55 54 57 53 55 28 25 17 13 6 357 349
69 101 99 86 69 75 89 86 77 69 73 61 73 76 80 88 99 104 112 115 109 104 95 91 77 70 48 54 33 15 35 44 52 48 51 47 12 10 6 330 10 352 320
87 91 100 80 65 79 88 85 83 91 77 63 43 57 64 75 103 113 116 119 117 103 99 98 95 79 52 40 45 359 3 339 344 25 46 63 1 27 16 334 344 313 304
86 84 94 90 82 79 95 91 88 103 120 122 117 87 82 89 105 121 125 124 126 127 121 109 102 93 35 347 304 315 342 265 268 318 29 340 303 303 289 15 305 311 354
98 97 99 99 110 99 72 95 118 139 150 116 125 126 122 118 122 126 139 158 159 148 152 153 123 87 11 343 336 341 340 182 223 197 196 359 308 253 303 328 350 354 356
110 115 110 114 129 143 135 59 36 141 125 111 138 124 133 136 125 104 102 154 110 339 177 179 176 263 320 35 350 331 332 341 36 321 335 347 1 354 356 352 352 350 1
116 116 122 119 95 64 63 76 11 271 231 151 128 149 161 145 131 129 125 58 42 36 333 357 349 151 277 320 310 286 48 46 358 44 358 16 358 3 355 352 349 353 358